Theta_e
305 305 306 307 308 308 308 308 310 311 312 318 318 319 321 321 320 321 326 322 326 325 324 324 328 334 336 339 340 344 349 348 352 348 343 339 341 341 342 347 349 348 351 349 351
304 304 305 306 307 307 307 308 308 310 311 318 315 320 320 318 318 323 322 323 324 325 325 325 328 330 330 335 339 346 350 341 345 344 348 348 349 349 347 349 350 351 348 348 348
304 304 304 305 306 306 306 307 307 308 310 316 311 317 318 316 328 325 325 322 323 326 322 323 326 329 331 333 336 346 345 342 342 343 345 346 350 349 354 347 350 352 349 346 350
303 304 304 304 305 306 306 306 307 307 310 316 311 310 315 321 326 326 326 324 323 325 321 325 329 329 329 333 334 338 338 343 344 346 345 348 344 342 351 346 349 349 348 347 347
303 304 304 304 304 305 306 306 306 307 311 316 312 309 317 326 324 324 325 326 324 322 323 326 330 329 329 335 332 336 336 339 338 340 344 346 346 345 342 342 348 348 348 348 347
302 303 304 304 304 305 306 306 306 307 314 315 311 309 320 324 321 324 325 324 323 321 324 326 329 327 329 333 331 337 335 339 337 339 344 347 344 345 343 344 348 348 349 348 347
302 302 303 304 304 304 305 306 306 307 314 314 310 317 325 321 325 326 323 322 323 322 323 327 330 326 327 331 335 337 336 336 337 339 346 346 350 353 348 346 347 348 347 347 347
302 302 303 303 304 305 305 306 306 308 316 315 312 323 325 320 325 324 324 322 322 324 326 328 329 325 331 329 334 336 335 335 337 337 343 347 355 352 348 348 349 348 348 348 347
303 302 303 303 304 305 306 306 308 314 320 314 321 325 335 331 329 327 328 324 321 322 324 327 326 328 331 329 330 334 337 340 341 335 336 344 355 351 349 351 352 351 350 350 350
303 302 303 303 304 305 306 307 313 327 324 325 325 328 330 335 327 327 329 326 322 321 323 324 327 331 328 327 330 336 337 341 342 337 336 343 352 351 350 351 352 352 353 353 352
304 303 302 303 305 305 306 307 324 333 332 335 330 329 328 331 329 325 327 327 321 321 322 324 330 331 329 327 328 335 336 343 343 338 339 343 351 351 348 348 348 349 350 351 351
304 303 302 303 305 305 308 315 319 324 324 326 328 333 332 331 329 327 328 325 321 323 323 326 331 332 332 330 331 331 342 343 342 340 341 341 348 347 345 347 348 350 349 350 348
305 303 302 302 305 311 315 319 323 323 325 327 328 329 327 329 328 324 324 324 321 322 323 326 332 333 332 329 331 330 332 340 344 344 342 344 345 348 345 343 346 349 348 348 349
305 304 303 302 311 311 311 318 320 321 324 327 327 328 327 328 327 326 324 323 323 322 324 327 330 331 329 329 330 328 330 331 339 344 345 344 351 347 344 341 345 349 348 346 348
304 304 303 304 307 313 313 316 320 321 334 330 327 327 326 327 327 325 325 323 322 324 324 328 329 329 329 329 330 328 329 329 329 337 335 340 337 346 342 342 343 344 348 346 346
304 303 304 306 309 309 312 313 319 325 337 330 326 327 327 326 328 327 324 323 324 324 325 327 328 327 328 330 330 331 329 328 327 326 329 332 336 350 346 344 343 343 344 345 346
303 303 304 306 308 310 308 315 326 329 328 329 325 326 325 327 328 327 324 323 322 321 324 327 327 326 327 327 328 329 326 333 332 331 331 329 331 346 345 343 341 341 339 341 344
303 303 306 307 306 308 314 317 328 328 327 327 327 326 326 327 328 327 324 323 322 322 324 326 326 326 327 325 325 327 326 335 339 336 335 332 336 339 345 344 341 341 339 339 343
306 309 311 312 315 312 316 319 324 326 326 327 329 329 327 328 328 325 325 324 323 322 322 325 327 328 328 329 328 329 331 329 331 334 333 334 338 340 344 343 343 344 340 337 339
308 312 315 313 317 315 318 319 323 324 324 325 325 327 331 327 327 324 324 325 325 324 324 325 328 327 329 328 328 329 330 330 328 333 337 334 341 339 338 339 342 344 340 340 338
310 319 319 315 320 319 316 317 320 321 322 323 324 325 331 332 327 324 324 326 325 324 325 325 325 329 328 327 328 330 330 330 329 329 330 334 338 342 340 336 333 331 332 336 341
312 316 318 320 323 321 317 317 317 321 323 324 324 326 330 332 333 326 324 326 326 325 324 325 327 330 329 329 329 328 328 333 333 334 335 335 339 336 337 334 334 337 336 334 337
311 314 315 322 324 323 322 319 319 320 322 324 324 327 328 329 331 332 333 328 326 325 324 326 327 329 335 329 328 328 328 329 331 329 333 339 337 338 333 333 335 334 336 337 336
313 321 319 318 322 322 322 323 322 322 323 324 325 329 330 329 328 330 332 332 328 326 336 331 327 331 330 334 330 329 330 330 327 328 330 334 338 336 337 341 337 337 336 341 341
315 319 318 321 321 318 323 326 322 324 325 327 324 329 329 329 330 331 331 336 334 334 334 329 332 331 329 329 329 332 332 330 329 328 332 332 341 336 335 336 335 334 335 337 345
319 315 313 312 317 321 323 326 327 323 328 332 329 329 329 331 336 339 337 338 339 330 330 328 335 332 332 331 329 329 331 332 332 330 329 329 331 336 334 336 338 334 334 336 338
311 314 312 312 314 316 322 320 326 323 327 330 329 331 331 335 333 332 331 332 331 335 333 332 334 332 331 332 332 332 333 331 331 331 330 330 334 338 338 339 336 333 333 336 336
Wind_Speed
27 28 28 28 28 28 29 31 30 31 35 32 29 24 18 17 17 12 7 15 10 16 19 16 15 21 21 13 7 4 2 4 14 16 4 14 18 11 19 20 12 7 19 22 29
27 28 30 29 29 29 30 30 30 31 33 29 26 20 14 13 13 14 28 17 18 13 11 10 12 13 9 9 13 6 4 4 20 10 15 14 11 5 6 19 20 21 17 23 28
26 28 30 31 29 30 32 30 31 31 32 24 22 17 12 9 5 9 11 25 24 18 16 16 23 19 15 15 14 10 11 22 10 13 16 10 5 2 8 14 22 24 20 15 24
27 28 29 31 31 30 32 32 30 33 30 20 20 16 10 3 3 4 7 20 21 18 10 11 9 12 10 13 5 10 14 16 13 24 14 8 5 2 11 6 21 20 18 10 8
27 28 29 29 31 31 32 33 31 33 28 17 17 13 4 4 12 16 15 16 20 15 16 13 14 11 13 7 4 8 10 15 17 19 18 17 7 6 5 6 21 19 16 13 8
28 29 30 30 31 32 32 33 33 31 24 15 13 7 2 7 13 18 13 17 20 14 14 18 10 11 12 13 7 4 9 13 13 17 16 19 9 7 7 7 20 19 15 14 11
30 30 31 30 32 33 33 33 34 32 20 12 8 2 5 17 6 13 13 23 23 18 10 24 23 9 11 10 8 5 9 13 10 20 19 21 12 10 12 14 14 14 14 13 12
32 32 31 32 32 33 35 35 37 30 15 8 2 1 8 17 15 15 19 14 18 20 24 26 24 11 6 8 3 5 7 6 9 11 12 12 10 12 11 12 11 13 13 12 11
32 33 33 32 32 34 36 37 36 18 8 4 2 4 9 13 11 17 16 17 19 21 26 25 16 8 8 5 4 5 5 13 5 5 7 7 14 16 14 13 13 13 12 11 8
34 33 33 34 32 34 37 39 19 3 1 2 9 4 8 9 17 19 14 19 11 11 12 10 6 4 5 2 6 7 5 14 10 10 8 11 9 17 17 15 14 12 11 12 9
34 34 34 34 33 33 40 13 3 1 5 9 7 8 18 17 19 15 22 17 10 7 9 8 3 7 12 12 12 10 11 9 6 10 7 8 17 18 17 15 10 8 11 13 11
36 34 35 35 33 34 19 4 8 14 14 14 20 23 29 31 10 13 25 12 10 9 8 7 9 13 16 17 11 10 11 12 13 13 8 10 16 16 11 12 17 12 12 14 12
37 37 36 37 35 14 7 16 25 33 8 23 23 20 21 17 12 11 11 12 8 9 12 11 10 19 20 17 12 11 7 15 12 13 10 10 4 2 6 9 14 17 15 11 13
38 37 36 39 11 16 12 22 24 26 4 11 10 17 18 18 9 17 18 12 8 14 14 11 15 21 20 18 11 7 6 6 12 20 9 10 6 5 13 12 15 18 17 13 16
38 36 38 28 19 8 9 25 19 8 4 8 10 12 10 19 8 11 25 12 14 10 9 14 16 19 20 16 8 8 9 6 6 4 5 12 5 12 13 11 7 13 18 17 20
40 39 40 12 12 23 18 26 9 2 8 8 11 12 17 13 15 8 19 12 10 12 14 12 13 15 15 13 11 6 3 5 7 1 1 7 8 5 14 17 19 15 20 18 21
43 41 38 19 8 5 22 7 1 5 8 6 16 20 20 9 18 18 20 18 16 11 11 13 20 16 15 8 9 5 4 2 2 1 6 8 7 9 21 19 21 20 15 14 24
49 41 29 26 26 10 2 1 6 12 23 17 18 9 17 17 16 19 17 17 18 16 6 9 13 19 14 10 11 8 9 6 5 4 8 10 6 4 21 22 21 18 16 13 20
41 21 17 28 12 13 2 6 6 13 18 19 19 15 12 19 11 18 15 19 18 19 14 10 13 13 12 6 10 10 5 9 5 5 3 4 6 7 17 15 16 21 15 12 11
25 11 14 16 19 13 3 7 9 22 23 21 22 21 21 20 19 20 19 20 18 21 18 13 7 14 9 10 13 11 7 2 3 2 5 5 2 5 8 9 13 12 15 13 18
7 4 19 22 24 3 5 8 14 20 21 20 25 27 23 7 18 14 19 18 23 21 23 19 8 14 11 8 9 2 4 4 6 5 5 3 4 5 10 10 11 10 10 13 22
9 4 17 35 4 4 8 8 15 19 20 23 23 22 21 7 9 12 16 19 21 22 22 23 5 11 14 8 13 9 9 9 5 4 1 6 5 9 11 9 9 9 9 7 9
6 4 14 14 5 8 11 20 23 20 21 23 24 19 15 8 8 10 11 16 20 24 22 15 13 10 6 8 12 15 9 8 7 4 4 3 3 2 8 7 8 9 8 9 9
4 4 3 3 7 11 14 17 19 20 22 24 24 11 14 8 10 11 15 13 21 22 25 13 7 8 7 9 11 11 13 8 9 5 6 6 7 5 6 5 10 9 8 9 8
4 4 6 5 6 16 14 15 22 21 19 15 15 8 15 13 13 9 13 7 15 23 20 14 8 7 8 7 3 9 6 9 8 8 8 7 10 11 11 8 9 9 6 5 7
4 4 5 9 10 12 12 15 19 22 16 12 18 13 19 7 4 6 10 6 6 4 16 7 6 4 2 2 5 6 15 14 17 13 7 8 7 13 16 10 7 8 8 5 2
11 12 2 7 7 9 10 22 15 19 14 16 15 5 8 7 7 6 9 11 8 3 4 9 6 4 5 1 6 6 5 5 8 14 16 12 8 6 9 9 8 7 7 4 2
Wind_Direction
358 356 353 351 349 348 347 347 343 342 341 336 331 322 318 313 307 289 233 236 242 275 266 291 280 251 232 252 208 109 127 121 174 240 319 98 123 135 121 136 160 192 140 152 149
354 353 351 348 346 345 345 343 342 341 341 337 337 333 326 329 315 252 258 236 230 257 243 259 270 260 241 233 215 141 248 141 181 150 106 100 91 67 91 113 110 119 125 146 136
351 349 348 347 344 341 342 342 341 340 341 335 336 340 333 349 290 247 275 225 226 245 251 270 283 290 274 267 255 179 212 117 153 116 112 106 113 253 85 121 137 136 141 155 141
346 345 344 344 342 338 338 339 338 339 338 329 330 334 328 18 266 355 353 205 209 225 241 259 263 267 267 273 226 82 94 111 133 111 107 121 130 92 128 146 130 133 142 145 146
343 341 341 341 339 336 334 334 336 338 335 322 326 329 341 244 247 258 304 197 200 208 221 237 254 261 261 292 125 103 103 102 110 117 128 140 121 120 124 105 127 136 146 149 157
343 339 338 338 337 334 331 330 331 333 328 318 325 329 320 255 253 241 230 184 203 203 221 239 248 256 275 284 105 108 126 123 131 114 109 97 117 97 231 159 132 144 152 163 162
343 339 336 335 334 331 327 326 327 327 318 309 324 357 256 242 261 189 190 191 196 217 231 239 253 276 283 303 113 146 116 123 102 118 118 110 98 107 123 127 137 149 161 170 168
342 339 335 332 332 329 325 323 323 321 302 286 291 130 251 271 262 245 190 200 211 224 234 252 257 261 265 306 133 137 131 123 142 120 153 112 141 136 136 142 151 164 174 175 168
342 339 335 330 330 328 322 322 318 316 278 244 281 191 264 288 232 241 204 188 211 240 249 255 268 255 315 293 249 159 198 129 131 171 149 109 144 154 165 163 167 181 175 157 150
341 338 334 329 328 327 321 324 319 347 264 267 271 333 252 231 183 211 214 213 192 230 246 244 271 233 283 275 204 189 219 152 151 201 166 128 155 164 172 170 181 182 155 152 159
341 338 334 327 325 326 323 340 296 214 222 222 189 231 297 248 194 193 212 218 200 219 211 236 219 239 242 247 253 201 183 127 221 209 139 152 151 170 177 171 174 172 158 160 166
339 339 334 326 323 318 311 248 240 290 303 277 270 249 259 263 211 191 197 195 201 206 202 227 217 241 245 251 228 240 156 181 223 182 125 168 162 176 152 177 175 176 178 174 173
338 338 334 327 322 315 296 262 300 296 282 280 252 260 245 253 202 184 188 193 194 212 212 215 214 236 244 256 240 245 177 208 166 178 154 125 161 126 231 170 203 175 178 185 167
335 336 335 334 321 322 294 333 344 353 301 264 217 224 245 234 199 183 199 192 196 207 221 218 235 228 240 251 228 245 270 283 161 148 176 178 196 203 206 238 201 177 180 182 161
332 334 332 337 294 296 300 330 334 328 292 236 208 178 184 215 192 192 187 207 219 195 199 218 225 229 237 247 241 215 260 244 264 194 167 187 110 220 180 242 193 184 182 183 167
329 329 328 340 285 283 320 324 295 291 251 288 157 162 183 199 212 211 182 210 238 232 226 233 221 231 230 241 255 235 213 286 250 169 53 215 154 178 179 196 204 175 185 183 171
327 319 310 276 235 263 316 315 196 228 295 257 154 161 178 179 198 225 183 193 216 207 236 222 238 246 234 204 234 187 151 274 348 351 225 253 259 195 195 187 194 208 184 190 174
328 316 301 261 267 281 289 242 232 238 238 283 316 202 183 190 196 223 190 193 220 234 217 220 240 235 236 200 194 202 166 156 195 199 242 246 233 239 184 192 191 204 201 179 180
328 320 272 261 232 194 156 218 208 241 256 260 281 279 207 194 177 204 211 196 205 223 227 208 240 252 221 168 170 225 182 191 187 237 317 231 172 22 167 197 195 206 205 193 192
320 293 258 231 180 164 180 239 231 244 270 284 283 289 288 206 193 191 222 194 199 215 226 250 215 235 214 171 237 158 152 218 343 221 286 279 243 193 148 155 166 187 202 205 199
288 277 289 161 148 167 219 227 236 257 273 277 281 289 289 309 197 196 214 194 198 205 224 235 216 256 178 192 190 127 165 169 171 155 193 267 258 218 149 155 164 175 167 188 203
306 272 140 142 172 206 236 250 260 268 272 279 276 270 277 316 311 228 216 195 190 202 223 225 198 239 210 182 174 196 178 164 127 271 223 150 262 155 151 159 135 144 141 142 147
296 277 276 221 220 243 253 245 259 260 263 274 280 264 274 279 309 297 306 217 191 194 222 216 230 244 289 200 185 198 214 173 151 126 238 126 250 198 144 150 138 130 152 158 160
280 289 237 246 251 252 269 279 270 252 260 268 278 298 315 299 273 279 290 285 204 196 209 197 220 172 205 204 171 198 209 176 162 149 223 205 165 195 61 124 126 129 140 169 180
240 267 3 314 310 324 307 297 275 281 269 277 276 295 293 295 301 273 276 336 320 192 200 203 200 196 213 245 269 208 196 210 207 209 164 224 155 179 154 166 148 130 121 154 191
299 350 341 295 280 280 275 282 261 266 272 291 337 217 250 300 4 341 353 23 255 305 188 187 189 126 112 357 242 250 198 212 236 216 244 238 220 194 187 141 151 155 177 172 215
344 340 282 290 305 310 308 316 286 256 274 309 317 299 287 29 302 302 295 286 272 298 211 137 129 103 160 359 337 326 273 229 247 213 207 226 220 132 118 121 136 131 112 109 238